Regional Weather Roundup
Issued by NWS

Home | Current Version | Previous Version | Graphics & Text | Print | Product List | Glossary On
Versions: 1 2 3 4 5 6 7 8 9 10 11 12 13 14 15 16 17 18 19 20 21 22 23 24 25 26 27 28 29 30 31 32 33 34 35 36 37 38 39 40 41 42 43 44 45 46 47 48 49 50
000
ASUS43 KBIS 221602
RWRND

NORTH DAKOTA REGIONAL WEATHER ROUNDUP
NATIONAL WEATHER SERVICE BISMARCK ND
1100 AM CDT TUE AUG 22 2017

NOTE: "FAIR" INDICATES FEW OR NO CLOUDS BELOW 12,000 FEET WITH NO
SIGNIFICANT WEATHER AND/OR OBSTRUCTIONS TO VISIBILITY.


NDZ001>003-009>011-017-221700-
NORTHWEST NORTH DAKOTA

CITY           SKY/WX    TMP DP  RH WIND       PRES   REMARKS
WILLISTON      SUNNY     67  45  45 S7        30.21S
MINOT          SUNNY     71  40  32 NW12      30.17S
MINOT AFB      SUNNY     71  38  31 NW9       30.16S
$$

NDZ018>021-031>035-040>046-221700-
SOUTHWEST NORTH DAKOTA

CITY           SKY/WX    TMP DP  RH WIND       PRES   REMARKS
BISMARCK       SUNNY     67  49  52 NW3       30.21S
DICKINSON      SUNNY     69  38  32 CALM      30.22S
GARRISON         N/A     69  40  34 NW9G23    30.19S
HETTINGER ARPT SUNNY     70  41  34 CALM      30.24F
$$

NDZ004>008-012>016-024-026-027-054-221700-
NORTHEAST NORTH DAKOTA

CITY           SKY/WX    TMP DP  RH WIND       PRES   REMARKS
GRAND FORKS    MOSUNNY   71  46  40 NW16G26   30.05S
GRND FRKS AFB  SUNNY     71  47  42 NW14G23   30.07R
DEVILS LAKE    SUNNY     68  46  45 NW18      30.13S
$$

NDZ022-023-025-028>030-036>039-047>053-221700-
SOUTHEAST NORTH DAKOTA

CITY           SKY/WX    TMP DP  RH WIND       PRES   REMARKS
FARGO          SUNNY     70  50  49 NW13      30.09R
JAMESTOWN      SUNNY     67  48  50 NW13      30.15S
$$





USA.gov is the U.S. government's official web portal to all federal, state and local government web resources and services.